Vertical_Velocity
1 1 1 2 2 2 2 2 3 3 4 5 5 5 4 2 1 1 0 0 0 -0 -1 -1 -1 0 1 2 2 1 1 0 1 1 2 2 2 2 2 1 1 0 -0 -1 -0 -0 1 1 2 2 2 2 1 1 1 1 1 1 1 1 1 1 0 0 1 1 1 0 0
1 1 1 1 1 1 1 2 3 4 4 5 6 5 3 1 1 1 0 0 -0 -1 -1 -1 -0 0 1 2 2 2 1 0 0 1 1 1 1 1 1 0 0 0 -0 -1 -1 -0 0 1 2 2 2 1 1 1 2 2 2 1 1 1 1 0 -0 -0 1 1 0 -0 -1
2 2 1 1 1 1 2 2 4 4 6 6 6 4 2 1 0 0 0 -0 -1 -1 -0 -0 -0 -0 0 1 2 2 2 1 0 0 1 1 1 0 0 0 0 0 0 -1 -1 -0 0 1 2 2 1 1 1 2 2 1 1 1 1 1 0 -0 -1 -0 0 -0 -0 -0 -0
2 2 1 1 2 2 3 4 4 5 6 7 6 4 2 0 0 0 0 -0 -0 -0 -0 0 0 0 0 1 2 2 2 1 1 0 1 1 0 0 0 1 1 1 1 0 0 0 1 1 1 1 1 1 2 1 1 1 1 0 0 0 -0 -1 -1 -1 -1 -1 0 2 1
2 2 2 2 3 4 4 4 5 6 7 7 6 3 1 -0 0 0 0 0 -0 -0 -0 0 1 0 0 1 2 2 2 2 1 1 1 1 1 1 1 2 2 2 1 1 1 1 1 1 1 1 1 1 1 0 0 1 0 1 1 0 -0 -1 -2 -2 -3 -2 -0 1 0
2 3 3 3 4 4 4 4 5 6 8 8 6 3 1 -0 -0 0 0 -0 -1 -1 0 1 1 0 0 1 1 2 2 2 2 2 2 2 2 2 2 2 2 2 2 2 2 2 1 2 2 1 1 1 0 0 1 1 1 0 0 -0 -1 -2 -2 -1 -1 -1 -1 -1 -1
3 4 4 3 3 3 3 4 6 8 9 8 6 3 0 -1 -0 -0 -1 -1 -1 -0 0 1 0 0 0 1 1 1 2 2 2 3 2 2 2 2 2 1 1 1 1 1 2 2 2 2 2 2 1 1 1 1 1 1 -0 -0 -0 -1 -2 0 4 7 4 1 -1 -1 -1
4 4 3 3 3 3 3 5 7 9 9 8 5 2 -0 -1 -1 -1 -1 -1 -0 -0 0 0 -0 -0 0 1 1 1 2 2 2 2 2 1 1 1 1 1 1 1 1 1 1 2 2 2 2 2 1 1 1 1 1 0 -0 -1 -1 -2 1 3 4 4 3 0 -2 -2 -2
3 3 3 3 3 3 4 6 8 9 9 7 3 0 -1 -1 -1 -1 -1 -1 -1 -0 0 -0 -0 -0 0 1 1 2 2 2 1 1 0 0 1 1 1 1 0 1 1 1 1 2 2 2 2 2 2 2 2 1 1 0 0 -1 -1 -1 2 3 3 2 -0 -1 -2 -2 -2
3 3 3 3 3 4 5 8 9 9 8 5 2 -0 -1 -1 -1 -1 -1 -1 -0 0 0 -0 -0 0 1 1 2 3 2 1 -0 -0 -0 -0 0 0 0 0 0 -0 0 0 1 2 2 3 3 3 2 2 2 1 1 1 -0 -0 0 1 2 2 1 -2 -1 -1 -1 -2 -2
4 4 4 4 4 5 7 9 9 9 7 5 2 -0 -1 -1 -1 -1 -1 -0 1 1 0 -0 0 1 2 3 3 3 1 -0 -1 -1 -0 -0 -0 -0 -0 0 0 -0 -0 0 1 2 2 2 2 2 2 1 1 1 1 0 0 1 2 2 0 -1 -1 -1 -1 -1 -1 -2 -3
5 5 5 4 5 6 7 9 9 8 7 4 2 0 -0 -0 -0 -0 -0 0 1 0 -0 0 1 2 3 4 3 2 -0 -1 -1 -1 -0 -0 -0 -0 -0 0 1 1 0 1 1 1 1 2 2 1 1 0 0 -0 -1 -2 -1 -1 -0 -1 -0 -0 -0 -0 -0 -0 -1 -2 -2
5 5 5 4 5 6 8 9 9 8 6 4 2 1 0 -0 -0 -0 0 1 1 1 0 1 2 3 4 4 2 0 -1 -1 -1 -0 -0 0 0 -0 -0 0 1 1 2 2 1 0 -0 -0 1 1 1 -1 -0 -1 -2 -2 -1 -0 -0 -0 0 -0 -0 -0 0 -0 -1 -1 -1
6 5 5 5 5 7 8 9 8 7 5 3 2 1 0 0 0 0 0 1 1 1 2 3 4 4 4 3 1 0 -0 -0 -0 -0 0 0 0 0 -0 0 0 0 0 1 1 0 -0 -1 -0 1 1 -0 -0 -1 -1 -1 -0 0 0 0 0 0 0 0 0 -0 -0 -0 -0
8 7 6 6 6 8 9 9 7 5 4 3 2 1 1 0 0 1 1 1 1 2 3 4 4 4 4 2 1 0 0 1 0 0 0 0 0 -0 -0 0 0 -0 -0 0 1 1 0 -1 -0 0 0 -0 -0 -0 -0 -0 0 0 0 0 0 0 0 1 0 0 0 0 0
12 10 9 7 8 9 10 9 6 4 3 3 2 1 1 1 1 1 2 2 2 3 4 4 4 4 3 1 1 1 1 1 1 0 0 0 -0 -0 -0 0 0 -0 -0 1 2 1 0 -0 -0 -1 -0 -0 0 0 -0 -0 -0 -0 0 0 0 1 1 1 1 1 1 0 -0
11 11 11 11 11 11 10 10 7 6 5 4 2 2 1 1 2 2 3 3 3 3 3 3 4 3 2 1 0 1 1 1 0 0 -0 -0 -0 -1 -1 -0 0 1 1 1 1 1 -0 -0 -1 -1 -0 -0 -0 -1 -1 -1 -1 -0 -0 0 1 1 1 1 1 1 0 -0 -1
1 4 8 12 13 14 13 12 10 8 7 5 4 2 2 2 3 3 3 3 3 3 2 2 2 2 1 0 0 0 1 1 0 -0 -0 -0 -0 -0 -0 0 1 1 1 1 1 1 0 -0 -1 -1 -1 -2 -2 -2 -2 -1 -0 -0 1 1 2 2 1 1 1 0 -0 -1 -1
-16 -11 -4 4 9 13 15 14 12 11 9 7 5 4 3 3 3 4 4 3 3 2 2 2 2 1 1 0 0 0 0 0 0 -0 -0 0 1 1 1 1 1 1 1 1 -0 -1 -1 -1 -1 -1 -1 -2 -2 -1 -1 -0 0 1 2 2 2 1 1 0 0 -0 -1 -1 -1
-26 -25 -22 -15 -6 1 6 8 7 8 10 11 9 7 5 4 4 4 4 2 2 1 1 1 1 1 1 0 0 0 0 0 0 0 0 1 2 2 2 1 1 0 -0 -1 -2 -2 -2 -1 -1 -1 -1 -1 -1 -1 -0 0 1 2 2 2 1 1 0 -0 -0 -0 -1 -1 -1
-13 -18 -21 -24 -21 -16 -11 -8 -7 -4 0 7 10 9 6 4 4 4 3 1 1 1 1 1 2 2 1 1 1 1 0 0 0 1 1 2 2 2 1 1 1 -0 -1 -1 -1 -1 -0 -0 -1 -1 -2 -2 -1 -0 0 1 2 2 2 1 1 0 0 0 0 -0 -0 -1 -1
8 6 2 -5 -14 -19 -20 -16 -14 -14 -13 -7 3 8 8 6 4 3 2 1 0 0 1 1 2 2 2 2 1 1 1 1 1 1 2 2 2 1 1 1 1 -0 -0 -0 -0 -0 -0 -1 -1 -1 -1 -1 0 1 2 2 2 2 2 1 1 1 0 0 -0 -0 -1 -1 -0
12 14 14 13 5 -4 -10 -8 -5 -8 -14 -17 -6 3 8 6 4 3 2 1 0 0 1 2 3 3 2 2 1 1 1 1 2 2 2 2 2 1 1 1 1 1 0 -0 0 -0 -0 -0 -0 -0 0 1 1 2 2 2 2 2 1 1 1 1 0 -0 -0 -1 -1 -0 -0
5 8 11 15 16 13 10 9 10 3 -7 -18 -11 -1 6 6 4 2 2 1 0 1 1 3 3 3 2 2 1 1 1 1 2 2 2 2 1 1 1 1 1 0 -0 -0 -0 -0 -0 -0 0 0 1 1 2 2 2 2 2 1 1 1 0 0 -0 -0 -0 -0 -0 -0 -1
-1 1 6 12 18 20 19 17 16 8 -3 -15 -12 -3 4 5 3 2 2 2 1 1 2 3 3 2 2 2 1 1 1 1 1 1 1 2 1 1 0 0 0 -0 -1 -1 -0 -0 -0 0 0 1 1 2 2 2 2 1 1 1 1 0 0 0 -0 -0 -0 -0 -0 -1 -1
-3 -3 -0 6 14 17 17 14 11 5 -3 -13 -11 -4 3 4 3 2 2 2 1 1 2 2 2 2 2 2 1 1 1 1 1 1 1 1 1 1 1 0 0 0 -0 -0 -0 -0 -0 0 0 1 1 2 2 2 1 1 0 1 1 0 0 0 -0 -0 -0 -1 -1 -1 -1
2 -1 -4 -5 2 7 10 10 7 2 -4 -12 -10 -4 2 3 2 2 2 2 1 1 2 2 2 2 2 2 2 2 1 1 1 1 1 2 1 1 0 -0 -0 -0 -1 -1 -0 -0 -0 0 0 1 1 2 1 1 0 0 0 1 1 0 -0 -0 -0 -0 -1 -1 -1 -1 -1
8 6 -1 -10 -10 -5 2 8 6 1 -4 -11 -8 -3 1 2 2 2 2 2 1 1 1 1 2 2 2 2 2 2 2 2 3 3 3 2 1 -0 -1 -1 -1 -1 -1 -1 -0 -0 -0 0 1 1 1 1 1 0 0 0 1 0 0 -0 -0 -1 -1 -1 -1 -1 -2 -2 -2
10 10 6 -8 -14 -12 -4 4 3 -0 -5 -9 -6 -2 1 2 2 2 2 1 1 2 2 2 2 3 3 2 2 2 2 2 3 4 3 0 -1 -1 -1 -0 -0 -1 -1 -0 -0 0 0 0 1 1 1 0 0 0 0 0 0 0 -0 -0 -1 -1 -1 -1 -1 -2 -2 -1 -1
8 11 8 -4 -12 -11 -6 -0 -0 -2 -5 -7 -4 -1 1 3 3 2 2 1 1 2 2 2 3 3 3 3 3 2 2 0 -1 -1 -1 -2 -2 -3 -3 -2 -2 -2 -1 0 0 0 0 0 1 0 0 -0 0 0 0 0 -0 -0 -0 -1 -1 -1 -1 -1 -1 -1 -1 -1 -1
7 9 8 0 -6 -7 -6 -4 -4 -4 -5 -4 -1 1 3 3 3 2 1 1 1 1 2 3 3 3 3 3 3 3 2 1 -1 -2 -2 -1 -2 -3 -3 -3 -2 -1 -0 1 1 1 0 0 0 0 -0 0 0 0 0 -0 -0 -0 -0 -0 -0 -1 -1 -1 -1 -1 -1 -1 -1
9 10 8 3 -1 -3 -3 -5 -6 -5 -3 -0 1 3 3 3 2 1 1 1 0 1 2 2 3 3 3 3 3 3 4 4 1 -1 -2 -2 -3 -3 -3 -2 -1 -0 1 1 1 0 0 0 0 0 0 0 0 0 0 -0 -0 -0 -0 -0 -0 -1 -1 -1 -1 -1 -1 -1 -1
12 11 9 6 2 1 -0 -3 -4 -2 0 2 3 3 3 2 1 1 0 -0 0 1 2 1 2 2 3 4 4 3 3 3 1 -0 -1 -2 -3 -3 -2 -1 0 1 1 1 1 0 0 0 0 0 0 0 0 0 -0 -0 -0 -0 -0 -0 -1 -1 -1 -1 -1 -1 -1 -1 -1
9 9 8 6 3 1 -0 -2 -1 1 2 3 3 2 1 0 1 1 1 -0 2 2 2 1 1 2 3 4 4 3 2 1 1 1 -0 -2 -3 -2 -1 0 0 0 1 1 1 0 0 0 0 0 0 0 0 0 -0 -0 -0 -0 -1 -1 -1 -1 -2 -2 -1 -1 -1 -1 -1
-1 2 4 3 1 -2 -3 -3 -1 1 3 3 2 1 0 -0 0 1 2 3 4 3 1 1 1 2 3 4 3 3 2 -1 -0 0 0 -0 -1 -1 -1 -0 0 1 1 1 1 1 1 0 0 0 0 0 0 0 -0 -0 -0 -1 -1 -1 -2 -2 -2 -1 -1 -1 -1 -1 -1
-7 -3 -0 -0 -2 -5 -7 -7 -4 -1 2 3 2 1 -0 -0 1 3 5 6 4 2 1 1 1 2 2 3 3 6 6 -2 -2 -1 -0 1 0 0 -0 -0 1 1 1 1 1 1 0 0 0 -0 -0 -0 -0 -0 -0 -0 -1 -1 -1 -2 -2 -2 -1 -1 -1 -1 -1 -1 -1
-4 -2 -0 1 -1 -5 -9 -12 -10 -6 -1 2 2 1 -0 0 2 6 8 5 2 1 1 1 1 2 3 4 5 9 10 0 -1 -2 -1 0 1 1 1 1 1 1 1 1 1 1 0 -0 -0 -0 -0 -0 -0 -0 -0 -1 -1 -2 -2 -2 -1 -1 -1 -0 -0 -0 -0 -0 -0
1 2 3 4 2 -3 -8 -13 -12 -8 -3 2 1 1 1 2 4 6 7 3 2 1 1 1 1 2 3 4 6 7 6 2 -1 -2 -2 0 1 1 1 1 1 1 1 1 1 0 -0 -0 -0 -0 -0 -0 -0 -0 -1 -1 -2 -2 -1 -1 -1 -0 -0 -0 -0 -0 -0 -1 -1
6 6 6 5 3 -2 -7 -11 -9 -6 -1 2 1 1 2 4 6 6 4 3 2 2 1 1 0 0 1 2 4 4 3 0 -2 -2 -1 0 0 1 1 1 1 2 1 1 0 -0 -0 -1 -0 -0 -0 -0 -0 -1 -1 -2 -2 -1 -1 -0 -0 -0 -0 -0 -0 -0 -1 -1 -2
8 8 6 4 2 -1 -4 -6 -4 -2 1 2 2 2 3 4 4 3 2 2 2 2 1 0 -1 -2 -2 -1 0 0 -0 -1 -2 -1 -0 0 1 1 1 2 2 2 1 0 -0 -1 -1 -1 -0 -0 -0 -0 -1 -1 -1 -1 -1 -1 -0 -0 -0 -0 -0 -1 -1 -1 -1 -2 -2
7 6 5 4 3 2 0 -1 -1 0 2 3 4 4 4 4 2 1 1 2 2 0 -1 -2 -4 -4 -3 -2 -2 -2 -2 -1 -1 -0 0 1 1 1 2 2 2 1 0 -0 -1 -1 -1 -0 -0 -0 -1 -1 -1 -1 -1 -1 -0 -0 -0 -0 -0 -0 -1 -1 -2 -2 -3 -2 -2
Height
3081 3083 3084 3086 3087 3089 3090 3092 3093 3095 3096 3097 3098 3098 3099 3099 3099 3099 3099 3099 3099 3099 3100 3100 3101 3101 3102 3103 3103 3103 3103 3104 3104 3105 3105 3106 3106 3107 3107 3108 3108 3109 3109 3109 3110 3110 3111 3111 3112 3112 3112 3112 3112 3111 3111 3111 3110 3110 3110 3109 3109 3109 3110 3110 3110 3109 3109 3108 3108
3080 3082 3084 3085 3087 3088 3090 3091 3092 3094 3095 3096 3097 3097 3098 3098 3098 3098 3098 3098 3098 3098 3099 3099 3100 3100 3101 3102 3102 3102 3103 3103 3103 3104 3104 3105 3105 3106 3106 3107 3108 3108 3108 3109 3109 3109 3110 3110 3111 3111 3111 3111 3111 3110 3110 3110 3109 3109 3109 3109 3109 3109 3109 3109 3109 3109 3108 3108 3108
3080 3082 3083 3085 3086 3088 3089 3090 3092 3093 3094 3095 3096 3097 3097 3097 3097 3097 3097 3097 3097 3097 3098 3098 3099 3100 3100 3101 3101 3102 3102 3102 3103 3103 3104 3104 3105 3105 3105 3106 3107 3107 3108 3108 3108 3109 3109 3110 3110 3110 3110 3110 3110 3110 3109 3109 3108 3108 3108 3108 3108 3108 3108 3108 3108 3108 3108 3108 3107
3080 3081 3083 3084 3085 3087 3088 3090 3091 3092 3094 3095 3095 3095 3095 3095 3095 3096 3096 3096 3096 3096 3097 3098 3098 3099 3100 3100 3100 3101 3101 3101 3102 3102 3103 3103 3104 3104 3105 3105 3106 3106 3107 3107 3107 3108 3108 3109 3109 3109 3109 3109 3109 3108 3108 3108 3108 3107 3107 3107 3107 3107 3107 3107 3107 3108 3107 3107 3106
3079 3080 3082 3084 3085 3086 3088 3089 3090 3092 3093 3094 3094 3094 3094 3094 3095 3095 3095 3095 3095 3096 3096 3097 3098 3098 3099 3099 3100 3100 3100 3101 3101 3101 3102 3102 3103 3103 3104 3105 3105 3105 3105 3106 3106 3107 3107 3108 3108 3108 3108 3108 3108 3108 3107 3107 3107 3107 3107 3107 3107 3107 3107 3107 3107 3107 3106 3106 3105
3078 3080 3081 3083 3084 3086 3087 3088 3090 3091 3092 3093 3093 3093 3093 3093 3093 3094 3094 3094 3094 3095 3096 3096 3097 3097 3098 3098 3099 3100 3100 3100 3101 3101 3101 3102 3102 3103 3103 3103 3104 3104 3105 3105 3105 3106 3106 3107 3107 3107 3107 3107 3107 3107 3107 3107 3106 3106 3106 3106 3106 3106 3106 3107 3107 3106 3105 3105 3104
3077 3079 3080 3082 3084 3085 3086 3088 3089 3090 3091 3092 3092 3092 3092 3092 3092 3093 3093 3093 3094 3094 3095 3096 3096 3097 3097 3098 3098 3099 3099 3100 3100 3101 3101 3101 3102 3102 3102 3102 3103 3103 3104 3104 3104 3105 3105 3105 3106 3106 3106 3106 3106 3106 3106 3106 3105 3106 3106 3106 3106 3106 3107 3106 3105 3104 3104 3103 3103
3076 3078 3080 3081 3083 3084 3085 3087 3088 3090 3090 3091 3091 3091 3091 3091 3091 3092 3092 3092 3093 3094 3094 3095 3095 3096 3097 3097 3098 3098 3099 3099 3100 3100 3100 3101 3101 3101 3101 3102 3102 3102 3102 3103 3103 3104 3104 3104 3105 3105 3105 3105 3105 3105 3105 3105 3105 3105 3105 3105 3106 3106 3105 3104 3104 3103 3103 3102 3101
3075 3077 3079 3080 3082 3083 3085 3086 3087 3089 3089 3090 3090 3090 3090 3090 3090 3091 3091 3092 3092 3093 3094 3094 3095 3095 3096 3097 3097 3098 3098 3099 3099 3099 3100 3100 3100 3100 3100 3101 3101 3101 3101 3102 3102 3103 3103 3103 3104 3104 3104 3104 3104 3104 3104 3104 3104 3105 3105 3105 3105 3104 3104 3103 3103 3102 3101 3101 3100
3075 3076 3078 3079 3081 3082 3084 3085 3087 3088 3088 3089 3089 3089 3089 3089 3090 3090 3090 3091 3091 3092 3093 3093 3094 3095 3095 3096 3097 3097 3097 3098 3098 3098 3099 3099 3099 3099 3100 3100 3100 3100 3100 3101 3101 3102 3102 3103 3103 3103 3103 3103 3103 3103 3103 3104 3104 3104 3104 3103 3103 3103 3103 3102 3101 3101 3100 3100 3099
3074 3075 3077 3078 3080 3081 3083 3085 3086 3087 3087 3088 3088 3088 3088 3088 3089 3089 3090 3090 3090 3091 3092 3092 3093 3094 3095 3095 3096 3096 3096 3097 3097 3097 3098 3098 3098 3099 3099 3099 3099 3100 3100 3100 3100 3101 3101 3102 3102 3102 3102 3102 3102 3103 3103 3103 3103 3103 3102 3102 3102 3102 3101 3101 3100 3100 3099 3099 3098
3073 3075 3076 3078 3079 3080 3082 3084 3085 3086 3086 3087 3087 3087 3087 3087 3088 3088 3089 3089 3090 3090 3091 3092 3093 3094 3094 3095 3095 3095 3095 3096 3096 3096 3097 3097 3097 3098 3098 3098 3099 3099 3099 3099 3100 3100 3100 3101 3101 3101 3101 3101 3102 3102 3102 3102 3102 3101 3101 3101 3101 3100 3100 3099 3099 3099 3098 3097 3097
3072 3074 3075 3077 3078 3080 3081 3083 3084 3085 3085 3085 3086 3086 3086 3087 3087 3088 3088 3088 3089 3089 3090 3091 3092 3093 3094 3094 3094 3094 3095 3095 3095 3095 3096 3096 3096 3097 3097 3097 3098 3098 3099 3099 3099 3100 3100 3100 3100 3100 3100 3100 3101 3101 3101 3100 3100 3100 3100 3100 3100 3099 3099 3098 3098 3098 3097 3097 3097
3071 3073 3075 3076 3077 3079 3080 3082 3083 3084 3085 3085 3085 3085 3085 3086 3086 3087 3087 3088 3088 3089 3089 3090 3091 3092 3093 3093 3093 3093 3094 3094 3094 3095 3095 3095 3095 3096 3096 3096 3097 3097 3098 3098 3099 3100 3100 3100 3100 3100 3100 3100 3100 3100 3100 3100 3100 3099 3099 3099 3099 3098 3098 3097 3097 3097 3097 3096 3096
3070 3072 3074 3075 3076 3078 3080 3081 3082 3083 3084 3084 3084 3084 3085 3085 3085 3086 3086 3087 3087 3088 3089 3090 3090 3091 3092 3092 3092 3092 3093 3093 3093 3094 3094 3094 3095 3095 3095 3096 3096 3097 3097 3098 3099 3099 3099 3099 3099 3099 3099 3099 3099 3099 3099 3099 3099 3099 3098 3098 3097 3097 3097 3097 3097 3096 3096 3096 3096
3069 3071 3072 3074 3075 3077 3078 3080 3081 3082 3083 3083 3083 3083 3084 3084 3085 3085 3085 3086 3086 3087 3088 3089 3090 3090 3090 3091 3091 3091 3092 3092 3092 3093 3093 3093 3094 3094 3095 3095 3095 3096 3096 3096 3097 3098 3098 3098 3098 3098 3098 3098 3099 3098 3098 3098 3097 3097 3097 3096 3096 3096 3096 3096 3096 3096 3096 3095 3095
3067 3069 3071 3072 3074 3076 3077 3079 3080 3081 3081 3082 3082 3082 3083 3083 3084 3084 3085 3085 3086 3086 3087 3088 3089 3089 3090 3090 3090 3090 3091 3091 3092 3092 3092 3093 3093 3093 3094 3094 3095 3095 3095 3095 3096 3096 3097 3097 3097 3097 3097 3097 3097 3097 3097 3096 3096 3096 3096 3096 3096 3096 3096 3096 3096 3096 3095 3095 3094
3065 3067 3069 3070 3072 3074 3076 3077 3079 3080 3080 3081 3081 3082 3082 3083 3083 3083 3084 3085 3085 3085 3086 3087 3088 3088 3089 3089 3089 3090 3090 3090 3091 3091 3092 3092 3092 3093 3093 3094 3094 3094 3095 3095 3095 3096 3096 3096 3096 3096 3096 3096 3096 3096 3096 3096 3095 3095 3095 3095 3096 3096 3096 3096 3095 3095 3095 3094 3094
3063 3065 3066 3068 3070 3072 3074 3076 3077 3078 3079 3080 3080 3081 3081 3082 3082 3083 3083 3084 3084 3085 3085 3086 3086 3087 3087 3088 3088 3089 3089 3090 3090 3090 3091 3091 3092 3092 3092 3093 3093 3094 3094 3095 3095 3095 3095 3095 3095 3095 3096 3095 3095 3095 3095 3095 3095 3095 3095 3095 3095 3095 3095 3095 3095 3094 3094 3093 3093
3063 3064 3065 3067 3068 3070 3072 3074 3075 3076 3077 3078 3079 3080 3080 3081 3081 3082 3082 3083 3083 3084 3084 3085 3085 3086 3086 3087 3087 3088 3088 3089 3089 3090 3090 3091 3091 3091 3092 3092 3093 3093 3093 3094 3094 3095 3095 3095 3095 3095 3095 3095 3095 3094 3094 3094 3095 3095 3095 3095 3095 3095 3095 3094 3094 3094 3093 3093 3092
3063 3065 3065 3066 3068 3069 3070 3072 3073 3075 3076 3077 3078 3079 3079 3080 3080 3081 3081 3082 3082 3083 3083 3084 3084 3085 3085 3086 3086 3087 3087 3088 3088 3089 3090 3090 3090 3091 3091 3092 3092 3093 3093 3094 3094 3094 3094 3094 3094 3094 3094 3094 3094 3094 3094 3094 3094 3095 3095 3095 3095 3095 3094 3094 3093 3093 3092 3092 3091
3064 3065 3066 3067 3067 3068 3069 3070 3072 3073 3074 3075 3077 3077 3078 3079 3080 3080 3080 3081 3081 3082 3082 3083 3083 3084 3084 3085 3085 3086 3086 3087 3088 3088 3089 3089 3090 3090 3090 3091 3092 3092 3093 3093 3093 3093 3093 3093 3093 3093 3093 3093 3093 3093 3093 3094 3094 3094 3095 3095 3094 3094 3094 3093 3092 3092 3091 3091 3090
3063 3064 3065 3066 3067 3068 3068 3070 3071 3072 3073 3074 3075 3076 3077 3078 3078 3079 3079 3080 3080 3081 3081 3082 3082 3083 3083 3084 3084 3085 3085 3086 3087 3087 3088 3088 3089 3090 3090 3091 3091 3092 3092 3092 3092 3092 3092 3092 3092 3092 3092 3093 3093 3093 3093 3094 3094 3094 3094 3094 3094 3093 3093 3092 3092 3091 3090 3090 3089
3062 3063 3064 3066 3067 3068 3069 3070 3071 3071 3072 3073 3075 3075 3076 3076 3077 3078 3078 3079 3079 3080 3080 3081 3081 3082 3082 3083 3083 3084 3085 3085 3086 3087 3087 3088 3089 3089 3090 3090 3090 3090 3090 3091 3091 3091 3091 3092 3092 3092 3092 3092 3092 3093 3093 3093 3094 3094 3094 3093 3093 3092 3092 3091 3091 3090 3090 3089 3088
3060 3062 3063 3065 3067 3068 3069 3070 3070 3070 3071 3072 3074 3074 3075 3075 3076 3076 3077 3077 3078 3079 3079 3080 3080 3081 3081 3082 3082 3083 3084 3085 3085 3086 3087 3088 3088 3088 3089 3089 3089 3090 3090 3090 3090 3091 3091 3091 3091 3091 3091 3092 3092 3093 3093 3093 3093 3093 3093 3092 3092 3091 3091 3091 3090 3090 3089 3088 3087
3060 3061 3063 3064 3066 3067 3068 3069 3069 3070 3070 3071 3073 3073 3074 3074 3075 3075 3075 3076 3077 3077 3078 3079 3079 3080 3080 3081 3081 3082 3083 3084 3085 3085 3086 3087 3087 3088 3088 3089 3089 3089 3090 3090 3090 3090 3091 3091 3091 3091 3091 3091 3092 3092 3093 3093 3092 3092 3092 3092 3091 3091 3090 3090 3089 3089 3088 3087 3086
3059 3060 3061 3063 3064 3066 3067 3068 3068 3068 3069 3070 3072 3072 3073 3073 3074 3074 3075 3075 3075 3076 3077 3077 3078 3079 3079 3080 3081 3082 3083 3083 3084 3085 3086 3086 3087 3087 3088 3088 3088 3089 3089 3089 3090 3090 3090 3090 3090 3091 3091 3091 3092 3092 3092 3092 3092 3091 3091 3091 3090 3090 3090 3089 3088 3088 3087 3086 3086
3057 3059 3060 3061 3062 3064 3065 3067 3067 3067 3068 3070 3070 3071 3072 3072 3072 3073 3073 3074 3074 3075 3076 3076 3077 3078 3079 3079 3080 3081 3082 3083 3084 3085 3085 3085 3086 3086 3087 3087 3088 3088 3089 3089 3089 3089 3090 3090 3090 3090 3091 3091 3091 3091 3091 3091 3091 3091 3090 3090 3090 3089 3089 3088 3088 3087 3086 3086 3085
3056 3058 3059 3060 3060 3062 3064 3065 3066 3066 3067 3069 3070 3070 3070 3070 3071 3072 3072 3073 3073 3074 3075 3075 3076 3077 3078 3079 3080 3080 3082 3082 3083 3084 3085 3085 3085 3086 3086 3087 3087 3088 3088 3088 3088 3089 3089 3090 3090 3090 3091 3091 3091 3091 3090 3090 3090 3090 3090 3089 3089 3089 3088 3088 3087 3086 3085 3085 3084
3055 3056 3058 3059 3060 3061 3062 3064 3065 3065 3066 3067 3068 3069 3069 3069 3070 3070 3071 3071 3072 3073 3074 3075 3075 3076 3077 3078 3079 3080 3081 3081 3082 3083 3084 3084 3085 3085 3085 3086 3086 3087 3087 3088 3088 3088 3089 3089 3090 3090 3090 3090 3090 3090 3090 3090 3090 3089 3089 3089 3088 3088 3087 3087 3086 3085 3085 3084 3083
3053 3055 3056 3057 3059 3060 3061 3062 3063 3064 3065 3066 3067 3067 3067 3068 3069 3069 3070 3070 3071 3072 3073 3074 3075 3076 3077 3078 3079 3080 3080 3082 3083 3083 3083 3084 3084 3084 3085 3085 3086 3086 3087 3087 3088 3088 3089 3089 3089 3090 3090 3090 3090 3089 3089 3089 3089 3089 3088 3088 3088 3087 3087 3086 3085 3085 3084 3083 3082
3052 3054 3055 3056 3058 3059 3060 3061 3062 3063 3064 3065 3065 3065 3066 3067 3067 3068 3069 3070 3071 3072 3073 3073 3074 3075 3076 3077 3078 3079 3080 3082 3082 3082 3083 3083 3083 3084 3084 3085 3085 3086 3087 3087 3088 3088 3088 3089 3089 3089 3089 3089 3089 3089 3089 3089 3088 3088 3088 3088 3087 3087 3086 3085 3085 3084 3083 3082 3081
3050 3052 3054 3055 3056 3058 3059 3060 3060 3062 3063 3063 3064 3064 3065 3065 3066 3067 3068 3069 3070 3071 3072 3073 3074 3075 3076 3077 3077 3079 3080 3081 3081 3082 3082 3083 3083 3084 3084 3085 3085 3086 3086 3087 3087 3088 3088 3088 3088 3089 3089 3089 3088 3088 3088 3088 3088 3088 3087 3087 3086 3086 3085 3085 3084 3083 3082 3081 3080
3048 3050 3052 3054 3055 3056 3057 3058 3059 3060 3061 3062 3063 3063 3064 3065 3065 3066 3067 3069 3070 3071 3072 3072 3073 3074 3075 3076 3077 3078 3079 3079 3080 3081 3082 3082 3083 3083 3084 3085 3085 3086 3086 3087 3087 3087 3088 3088 3088 3088 3088 3088 3088 3088 3088 3087 3087 3087 3087 3086 3085 3085 3084 3084 3083 3082 3081 3080 3080
3046 3048 3050 3051 3052 3054 3055 3056 3058 3059 3060 3060 3061 3062 3063 3064 3064 3065 3067 3069 3070 3070 3071 3072 3073 3074 3075 3075 3076 3078 3079 3079 3080 3081 3082 3082 3082 3083 3083 3084 3085 3085 3086 3086 3087 3087 3087 3087 3087 3087 3087 3087 3087 3087 3087 3087 3087 3086 3086 3085 3085 3084 3084 3083 3082 3081 3080 3080 3079
3044 3046 3048 3050 3051 3052 3053 3054 3056 3057 3058 3060 3060 3061 3062 3063 3064 3065 3067 3068 3068 3069 3070 3071 3072 3073 3074 3075 3076 3078 3079 3079 3080 3080 3081 3082 3082 3082 3083 3084 3084 3085 3085 3086 3086 3086 3087 3087 3087 3087 3087 3087 3087 3087 3086 3086 3086 3086 3085 3085 3084 3084 3083 3082 3082 3081 3080 3079 3078
3044 3045 3047 3048 3050 3050 3051 3053 3054 3055 3057 3059 3060 3060 3061 3062 3063 3065 3066 3067 3068 3069 3070 3071 3071 3072 3073 3075 3076 3079 3080 3079 3080 3080 3081 3081 3082 3082 3083 3084 3084 3085 3085 3085 3086 3086 3086 3086 3086 3086 3086 3086 3086 3086 3086 3086 3085 3085 3085 3084 3084 3083 3082 3082 3081 3080 3080 3079 3078
3043 3045 3046 3048 3049 3050 3050 3051 3053 3054 3056 3058 3059 3060 3060 3061 3063 3064 3065 3066 3067 3069 3070 3070 3071 3072 3074 3075 3076 3078 3079 3079 3080 3080 3080 3081 3082 3082 3083 3083 3084 3085 3085 3085 3085 3085 3086 3086 3086 3086 3086 3086 3086 3085 3085 3085 3085 3084 3084 3084 3083 3083 3082 3081 3080 3080 3079 3078 3077
3043 3044 3045 3046 3047 3049 3050 3051 3052 3054 3055 3057 3058 3059 3060 3061 3062 3064 3065 3066 3067 3068 3069 3070 3071 3072 3074 3075 3076 3077 3078 3078 3079 3080 3080 3081 3082 3082 3083 3083 3084 3084 3084 3085 3085 3085 3085 3085 3085 3085 3085 3085 3085 3085 3085 3085 3084 3084 3083 3083 3083 3082 3081 3080 3080 3079 3078 3077 3076
3042 3043 3044 3045 3046 3048 3049 3050 3051 3053 3055 3056 3057 3058 3060 3061 3062 3063 3065 3066 3067 3069 3069 3070 3071 3072 3074 3075 3075 3076 3077 3078 3079 3080 3080 3081 3081 3082 3083 3083 3083 3084 3084 3084 3084 3085 3085 3085 3085 3085 3085 3085 3085 3084 3084 3084 3084 3083 3083 3082 3082 3081 3081 3080 3079 3078 3077 3076 3075
3040 3041 3042 3044 3045 3047 3048 3049 3051 3052 3054 3055 3056 3057 3059 3060 3062 3063 3065 3066 3067 3068 3069 3070 3071 3072 3073 3074 3075 3076 3077 3078 3079 3080 3080 3081 3081 3082 3082 3083 3083 3083 3084 3084 3084 3084 3084 3084 3084 3084 3084 3084 3084 3084 3084 3084 3083 3083 3082 3082 3081 3081 3080 3079 3079 3078 3077 3076 3075